TimeEST,TemperatureF,Dew PointF,Humidity,Sea Level PressureIn,VisibilityMPH,Wind Direction,Wind SpeedMPH,Gust SpeedMPH,PrecipitationIn,Events,Conditions,WindDirDegrees,DateUTC
12:53 AM,75.0,57.9,55,30.14,10.0,East,19.6,24.2,N/A,,Mostly Cloudy,100,2013-11-15 05:53:00
1:53 AM,75.0,57.9,55,30.13,10.0,East,17.3,-,N/A,,Overcast,90,2013-11-15 06:53:00
2:53 AM,73.9,59.0,59,30.11,10.0,East,15.0,-,N/A,,Mostly Cloudy,100,2013-11-15 07:53:00
3:53 AM,75.0,60.1,60,30.10,10.0,East,16.1,21.9,N/A,,Scattered Clouds,100,2013-11-15 08:53:00
4:53 AM,75.0,60.1,60,30.10,10.0,East,15.0,-,N/A,,Mostly Cloudy,80,2013-11-15 09:53:00
5:53 AM,75.0,60.1,60,30.10,10.0,East,15.0,-,N/A,,Mostly Cloudy,90,2013-11-15 10:53:00
6:53 AM,75.0,62.1,64,30.12,10.0,East,16.1,-,N/A,,Mostly Cloudy,90,2013-11-15 11:53:00
7:53 AM,75.9,62.1,62,30.13,10.0,East,19.6,24.2,N/A,,Mostly Cloudy,90,2013-11-15 12:53:00
8:53 AM,77.0,63.0,62,30.15,10.0,East,16.1,-,N/A,,Mostly Cloudy,90,2013-11-15 13:53:00
9:53 AM,79.0,64.0,60,30.16,10.0,East,13.8,-,N/A,,Mostly Cloudy,80,2013-11-15 14:53:00
10:53 AM,79.0,64.0,60,30.15,10.0,East,19.6,-,N/A,,Mostly Cloudy,100,2013-11-15 15:53:00
11:53 AM,81.0,64.0,56,30.12,10.0,East,19.6,-,N/A,,Mostly Cloudy,100,2013-11-15 16:53:00
12:53 PM,80.1,64.0,58,30.10,10.0,East,16.1,-,N/A,,Overcast,100,2013-11-15 17:53:00
1:53 PM,80.1,64.0,58,30.07,10.0,East,16.1,21.9,N/A,,Mostly Cloudy,90,2013-11-15 18:53:00
2:53 PM,80.1,63.0,56,30.05,10.0,East,17.3,-,N/A,,Mostly Cloudy,90,2013-11-15 19:53:00
3:53 PM,79.0,64.0,60,30.05,10.0,East,13.8,-,N/A,,Mostly Cloudy,80,2013-11-15 20:53:00
4:53 PM,79.0,64.9,62,30.05,10.0,East,13.8,-,N/A,,Mostly Cloudy,90,2013-11-15 21:53:00
5:53 PM,78.1,64.0,62,30.05,10.0,East,15.0,-,N/A,,Overcast,80,2013-11-15 22:53:00
6:53 PM,78.1,64.9,64,30.05,10.0,East,12.7,-,N/A,,Overcast,90,2013-11-15 23:53:00
7:53 PM,78.1,64.0,62,30.07,10.0,East,12.7,-,N/A,,Mostly Cloudy,80,2013-11-16 00:53:00
8:53 PM,78.1,64.0,62,30.08,10.0,East,12.7,-,N/A,,Mostly Cloudy,80,2013-11-16 01:53:00
9:53 PM,78.1,64.0,62,30.09,10.0,East,10.4,-,N/A,,Mostly Cloudy,90,2013-11-16 02:53:00
10:53 PM,78.1,64.9,64,30.08,10.0,East,11.5,-,N/A,,Mostly Cloudy,90,2013-11-16 03:53:00
11:53 PM,78.1,66.0,66,30.08,10.0,East,12.7,-,N/A,,Mostly Cloudy,100,2013-11-16 04:53:00